OPS 4682 DEB, 1389

Orbit data source: Space-Track

OPS 4682 DEB, 1389 is space debris in LEO originally from a launch on Sat, 03 Apr 1965 UTC launched from the Air Force Western Test Range (AFWTR). Debris objects in space refer to the collection of defunct objects orbiting the Earth. Examples of debris include non-operational satellites, rocket bodies, and fragments generated from explosions, collisions, or faulty payload assembly.

Loading next visibility...
Identifier
1389, 1965-027D
Orbit
LEO
Country
Flag of USUS
Related business
Manufacturer
Unknown
Mission
Spacecraft
Bus & Motor
Unknown
Mass
7 kg wet, 7 kg dry
Launch date (UTC)
1965-04-03 (61 years ago)
Launch vehicle
Unknown
Launch site
Air Force Western Test Range (AFWTR)
Object type
Payload
Rocket body
Debris
Shape & HBR
Unknown
Radar Cross Section
Medium (>0.1 m² and <1 m²)

Expand to show TLE details & history
Last TLE update: 1 day ago

TLE from 1 day ago
0 OPS 4682 DEB
1 01389U 65027D   25300.72553806  .00000994  00000-0  26552-2 0  9991
2 01389  89.8556 222.7165 0029438  48.4448 327.5311 13.14397448880144
Epoch: 2025-10-27T17:24Z
TLE epoch observation values (Epoch: 2025-10-27T17:24:46.488Z)
Latitude
15.77268°
Longitude
-74.75988°
Altitude
1,189.61 km
Speed
7.269 km/s
True Right ascension
14h 51m 01s
True Declination
15° 41' 17"
Sunlit
Object was in daylight at epoch
Visualization orbit readout
Latitude
Unknown
Longitude
Unknown
Altitude
Unknown
Speed
Unknown
Apparent Right ascension
Unknown
Apparent Declination
Unknown
Sunlit
N/A
Visualization observer readout
Local Sidereal Time
12:29:29
Azimuth
Unknown
Elevation
Unknown
Doppler factor
Unknown
Orbital elements
Apogee altitude
1,225.616 km
Perigee altitude
1,180.979 km
Semi-major axis
7,581.435 km
Eccentricity
0.00294
Inclination
89.8556°
RAAN
222.7165°
Arg. of periapsis
48.4448°
True anomaly
327.34944°
Mean anomaly
327.5311°
Eccentric anomaly
327.44033°
Mean motion
3.28788 °/min
Orbital period
109.49 mins
BSTAR
0.0026552
Loading maneuver chart data...
Computing Atmospheric mass density...
Loading historical data...
Loading historical data...
Loading historical data...
Loading historical data...
Loading historical data...
Loading historical data...
Loading historical data...

Documentation

Showing up to 5 results
|